Location: �perlecques
(50.8057°N, 2.1521°E)
Time: 06:05:19
(UTC+00:00)

Cosmos 1339 Rocket - Pass Details

Date: 09 April 2020
Orbit: 941 x 1007 km, 82.9° (Epoch: 02 June)

Event Time Altitude Azimuth Distance (km) Brightness Sun altitude
Exits shadow 22:42:39 77° 223° (SW) 1,036 4.4 -29.2°
Maximum altitude 22:43:05 83° 279° (W) 1,021 4.5 -29.3°
Drops below altitude 10° 22:49:33 10° 9° (N) 2,795 7.6 -29.6°
Sets 22:52:06 0° 10° (N) 3,746 8.5 -29.7°
